www.pogodaiklimat.ru

Погода и климат >> Архив погоды >> Филиппины >> Сан-Хосе


ПОГОДА в Сан-Хосе

  • Прогноз погоды в Сан-Хосе
  • Монитор погоды в Сан-Хосе

АРХИВ ПОГОДЫ в Сан-Хосе

Время (UTC), дата Ветер
(напр.,м/с)
 
Видим.   Явления Облачность Т
(С)
Тd
(С)
f
(%)
Тe
(С)
Тes
(С)
Комфортность P
(гПа)
Po
(гПа)
Тmin
(С)
Tmax
(С)
R
(мм)
R24
(мм)
S
(см)
15 9.06 С 2 15 км зарница {гроза, туман} 10/1 570 м
[Cb cap Ac As]
+29.0 +25.9 83 +43 +43 опасность
перегрева
1008.9 1008.5
18 9.06 Ю 1 10 км гроза без осадков {туман} 10/3 570 м
[Cb cap Ac As]
+28.2 +25.3 84 +41 +41 опасность
перегрева
1008.0 1007.6
21 9.06 В 1 12 км в посл. час гроза {дождь} 9/3 570 м
[Cb cap Ac As]
+26.8 +25.5 93 +39 +39 очень
душно
1007.8 1007.4 10
00 10.06 В 1 12 км осадки на расстоянии {гроза} 9/3 570 м
[Cb cap Ac As]
+28.3 +26.2 88 +43 +45 опасность
перегрева
1008.6 1008.2 +23.3 10
03 10.06 Ю 4 12 км осадки на расстоянии {туман} 9/3 570 м
[Cb cap Ac As]
+30.1 +26.8 83 +47 +51 опасность
перегрева
1008.7 1008.3
06 10.06 Ю 2 15 км гроза без осадков {туман} 10/3 570 м
[Cb cap Ac As]
+29.7 +26.5 83 +46 +49 опасность
перегрева
1007.3 1006.9
09 10.06 Ю 1 15 км осадки на расстоянии {гроза, туман} 10/3 570 м
[Cb cap Ac As]
+29.8 +26.4 82 +46 +46 опасность
перегрева
1008.3 1007.9
12 10.06 С 2 15 км зарница {ливн. осадки, туман} 10/3 570 м
[Cb cap Ac As]
+27.2 +25.1 88 +39 +39 очень
душно
1008.5 1008.1 +32.2 0.0
15 10.06 СВ 1 15 км мгла {туман} 6/1 600 м
[Cu med, cong Ac trans]
+26.5 +24.9 91 +38 +38 очень
душно
1009.3 1008.9
18 10.06 СВ 1 15 км мгла {туман} 8/1 600 м
[Cu med, cong Ac trans]
+26.8 +25.5 93 +39 +39 очень
душно
1008.7 1008.3
21 10.06 СВ 2 12 км в посл. час гроза {дождь} 10/3 570 м
[Cb cap Ac As]
+27.0 +25.7 93 +40 +40 очень
душно
1008.9 1008.5 1
00 11.06 С 1 15 км мгла {гроза, дождь} 9/3 600 м
[Sc diur, vesp Ci fib]
+27.0 +25.7 93 +40 +45 очень
душно
1009.4 1009.0 +22.8 3
03 11.06 ЮЗ 1 18 км мгла {туман} 9/1 600 м
[Cu med, cong Ac trans Ci fib]
+30.0 +26.6 82 +46 +58 опасность
перегрева
1009.1 1008.7
06 11.06 ЮЗ 1 18 км мгла {туман} 4/3 570 м
[Cb cap Ci fib]
+33.0 +27.3 72 +52 +65 опасность
перегрева
1007.5 1007.1
09 11.06 В 1 10 км в посл. час дождь {гроза} 9/4 570 м
[Cb cap Ac As]
+27.8 +25.6 88 +41 +42 опасность
перегрева
1007.3 1006.9 11
12 11.06 С 1 15 км мгла {гроза} 4/1 600 м
[Cu med, cong Ac trans]
+27.2 +25.6 91 +40 +40 очень
душно
1008.6 1008.2 +34.0 11
15 11.06 С 1 15 км зарница {туман} 8/1 570 м
[Cb cap Ac trans]
+27.0 +25.7 93 +40 +40 очень
душно
1009.8 1009.4
18 11.06 СЗ 1 15 км мгла {туман} 5/1 600 м
[Cu med, cong Ac trans]
+26.3 +25.4 95 +38 +38 очень
душно
1009.4 1009.0
21 11.06 СВ 1 10 км слаб. дождь {туман} 10/4 570 м
[Cb cap Ac As]
+25.0 +24.1 95 +34 +34 очень
душно
1009.7 1009.3 4
00 12.06 ЮВ 1 18 км в посл. час дождь {туман} 9/1 600 м
[Cu med, cong Cs]
+28.4 +25.4 84 +42 +47 опасность
перегрева
1010.2 1009.8 +21.8 15
03 12.06 Ю 3 20 км мгла {туман} 6/1 600 м
[Cu med, cong Ci sp]
+32.0 +26.6 73 +49 +62 опасность
перегрева
1010.1 1009.7
06 12.06 Ю 1 20 км мгла {туман} 5/1 600 м
[Cu med, cong Ci sp]
+33.0 +26.7 70 +51 +66 опасность
перегрева
1008.9 1008.5
09 12.06 ЮЗ 2 20 км мгла {туман} 5/1 570 м
[Cb cap Ci sp]
+33.5 +26.7 68 +51 +53 опасность
перегрева
1007.9 1007.5
12 12.06 З 1 15 км мгла {туман} 5/1 600 м
[Cu med, cong Ac trans]
+30.2 +26.3 80 +46 +46 опасность
перегрева
1008.7 1008.3 +34.1
15 12.06 СВ 1 15 км зарница {туман} 6/1 570 м
[Cb cap Ac trans]
+28.7 +26.2 86 +43 +43 опасность
перегрева
1009.6 1009.2
18 12.06 С 1 15 км мгла {туман} 5/1 600 м
[Cu med, cong Ac trans]
+27.1 +25.4 90 +39 +39 очень
душно
1008.6 1008.2
21 12.06 В 1 15 км мгла {туман} 4/1 600 м
[Cu med, cong Ac trans]
+26.0 +24.7 93 +37 +37 очень
душно
1007.7 1007.3
00 13.06 ЮВ 1 18 км мгла {туман} 6/1 600 м
[Cu med, cong Ci fib]
+29.9 +26.6 83 +46 +53 опасность
перегрева
1008.7 1008.3 +23.4
03 13.06 ЮЗ 2 20 км мгла {туман} 3/1 600 м
[Cu med, cong Ci fib]
+33.1 +27.1 71 +51 +69 опасность
перегрева
1008.7 1008.3
06 13.06 ЮЗ 3 20 км мгла {туман} 6/1 600 м
[Cu med, cong Ci fib]
+34.0 +26.2 64 +50 +61 опасность
перегрева
1007.8 1007.0
09 13.06 З 4 18 км мгла {туман} 6/1 570 м
[Cb cap Ac lent]
+31.0 +25.5 73 +46 +46 опасность
перегрева
1006.9 1006.5 0.0
12 13.06 С 1 15 км мгла {туман} 4/1 600 м
[Cu med, cong Ac trans]
+28.4 +24.3 78 +40 +40 очень
душно
1008.7 1008.3 +35.2 0.0
15 13.06 В 1 15 км зарница {туман} 3/1 570 м
[Cb cap Ac trans]
+28.4 +25.0 82 +41 +41 опасность
перегрева
1009.6 1009.2
18 13.06 С 1 15 км зарница {туман} 6/1 570 м
[Cb cap Ac trans]
+26.9 +24.9 89 +39 +39 очень
душно
1007.5 1007.1
21 13.06 СВ 1 15 км зарница {туман} 4/1 570 м
[Cb cap Ac trans Ci fib]
+26.3 +24.6 90 +37 +37 очень
душно
1007.4 1007.0
00 14.06 СЗ 2 18 км мгла {туман} 6/1 570 м
[Cb cap Ci sp]
+30.3 +26.7 81 +47 +52 опасность
перегрева
1008.8 1008.4 +23.0 0.0
03 14.06 ЮЗ 1 15 км гроза без осадков {туман} 5/3 570 м
[Cb cap Ci fib]
+33.2 +27.2 71 +52 +68 опасность
перегрева
1009.0 1008.6
06 14.06 Ю 3 15 км осадки на расстоянии {гроза, туман} 5/3 570 м
[Cb cap Ci fib]
+32.8 +27.7 75 +53 +62 опасность
перегрева
1006.9 1006.5
09 14.06 СЗ 2 12 км гроза, ливневой дождь 9/4 570 м
[Cb cap Ac As]
+28.0 +26.7 93 +44 +44 опасность
перегрева
1006.9 1006.5 21
12 14.06 СВ 1 12 км зарница {гроза, дождь} 3/3 570 м
[Cb cap]
+28.0 +27.2 95 +44 +44 опасность
перегрева
1008.9 1008.5 +35.8 22
15 14.06 З 3 8000 м сильн. дождь {гроза} 10/4 570 м
[Sc As op]
+25.8 +25.3 97 +37 +37 очень
душно
1010.6 1010.2 21
18 14.06 С 2 15 км в посл. час дождь {туман} 9/3 570 м
[Cb cap Ac As]
+25.1 +24.5 96 +35 +35 очень
душно
1008.2 1007.8 30
21 14.06 С 2 15 км зарница {туман} 9/1 570 м
[Cb cap Ac As]
+25.4 +24.6 95 +36 +36 очень
душно
1007.7 1007.3
00 15.06 С 1 18 км мгла {дождь} 9/1 570 м
[Cb cap Cs]
+28.7 +26.2 86 +43 +49 опасность
перегрева
1008.8 1008.4 +21.5 53
03 15.06 Ю 2 18 км мгла {туман} 8/1 600 м
[Cu med, cong Ac trans Cs]
+31.8 +27.6 79 +51 +63 опасность
перегрева
1008.3 1007.9
06 15.06 ЮЗ 2 18 км мгла {туман} 9/1 570 м
[Cb cap Cs]
+32.5 +28.1 78 +54 +66 опасность
перегрева
1007.3 1006.9
09 15.06 СВ 4 15 км осадки на расстоянии {туман} 9/3 570 м
[Cb cap Cs]
+28.7 +25.3 82 +42 +43 опасность
перегрева
1006.9 1006.5
12 15.06 СЗ 2 12 км в посл. час ливневой дождь {туман} 10/3 570 м
[Cb cap Ac As]
+27.3 +24.6 85 +39 +39 очень
душно
1008.4 1008.0 +34.8 0.3
15 15.06 СВ 1 15 км мгла {туман} 9/3 600 м
[Cu med, cong Cs]
+26.8 +24.7 88 +38 +38 очень
душно
1009.6 1009.2
18 15.06 С 1 15 км мгла {туман} 9/3 600 м
[Cu med, cong Cs]
+26.0 +24.8 93 +37 +37 очень
душно
1008.4 1008.0
21 15.06 С 1 15 км мгла {туман} 6/1 600 м
[Sc diur, vesp Ac trans]
+25.8 +24.7 94 +37 +37 очень
душно
1007.8 1007.4
00 16.06 Ю 1 18 км мгла {туман} 8/1 570 м
[Cb cap Cs]
+28.6 +26.3 87 +43 +49 опасность
перегрева
1008.8 1008.4 +22.3 0.3
03 16.06 Ю 1 18 км в посл. час ливневой дождь {туман} 8/1 570 м
[Cb cap Cs]
+31.5 +27.3 78 +50 +68 опасность
перегрева
1009.1 1008.7 0.0
06 16.06 Ю 2 18 км мгла {туман} 6/1 570 м
[Cb cap Ac trans]
+33.0 +26.0 67 +49 +59 опасность
перегрева
1007.5 1007.1 0.0
09 16.06 ЮЗ 3 15 км осадки на расстоянии {туман} 9/3 570 м
[Cb cap Ac As]
+31.4 +25.7 72 +46 +47 опасность
перегрева
1007.2 1006.8

 

Местоположение метеостанции Сан-Хосе (Филиппины): широта 12.35 долгота 121.03 высота над уровнем моря 3 м.

В архиве по умолчанию представлена погода в Сан-Хосе за последнюю неделю. Архивные данные за месяц целиком и за предыдущие месяцы, начиная с января 2011 года, Вы можете получить, выбрав интересующий диапазон дат из раскрывающегося списка и нажав кнопку "Ввод!".


*Определитесь, кто Вы:
робот инопланетянин человек

Внимание! Время в таблицах - всемирное. Для получения местного времени необходимо прибавить поправку, которая равна 8 ч.

Смотрите также архив погоды в соседних городах и на ближайших метеорологических станциях:

Погода в Короне (Филиппины) (98 км)
Погода в Калапане (Филиппины) (120 км)
Погода в Ромблоне (Филиппины) (136 км)
Погода на Куйо (Филиппины) (167 км)
Погода на Амбулонге (Филиппины) (192 км)
Погода в Тайябасе (Филиппины) (196 км)
Погода в Рохасе (Филиппины) (206 км)
Погода на Алабате (Филиппины) (220 км)
Погода в Сангли Пойнт (Филиппины) (239 км)
Погода в Аэропорту Ninoy Aquino (Филиппины) (241 км)

Пояснения к столбцам:

Ветер - указаны скорость ветра в м/с - средняя за 10 мин, порывы в срок и между сроками (в фигурных скобках) и направление, откуда дует ветер: С - северный, СВ - северо-восточный, В - восточный, ЮВ - юго-восточный, Ю - южный, ЮЗ - юго-западный, З - западный, СЗ - северо-западный.
Видимость - горизонтальная дальность видимости в метрах или километрах. При видимости от 1 до 10 км при отсутствии осадков обычно наблюдается дымка, при ухудшении видимости до 1 км и менее - туман. В сухую погоду видимость может ухудшаться дымом, пылью или мглою.
Явления - указаны атмосферные явления, наблюдавшиеся в срок или в последний час перед сроком; фигурными скобками обозначены явления, наблюдавшиеся между сроками (за 1-3 часа до срока); квадратными скобками обозначены град или гололедные отложения с указанием их диаметра в мм.
Облачность - указаны через наклонную черту общая и нижняя облачность в баллах и высота нижней границы облаков в метрах; квадратными скобками обозначены формы облаков: Ci - перистые, Cs - перисто-слоистые, Cc - перисто-кучевые, Ac - высококучевые, As - высокослоистые, Sc - слоисто-кучевые, Ns - слоисто-дождевые, Cu - кучевые, Cb - кучево-дождевые. Подробнее классификацию облаков см. в Атласе облаков (PDF).
T - Температура воздуха - температура, измеренная на высоте 2 м над землей.
Td - Температура точки росы - температура, при понижении до которой содержащийся в воздухе водяной пар достигнет насыщения.
f - Относительная влажность воздуха - влажноcть воздуха, измеренная на высоте 2 м над землей.
Te - Эффективная температура - температура, которую ощущает одетый по сезону человек в тени. Характеристика душности погоды. При расчете учитывается влияние влажности воздуха и скорости ветра на теплоощущения человека.
Tes - Эффективная температура на солнце - температура, которую ощущает человек, с поправкой на солнечный нагрев. Характеристика знойности погоды. Зависит от высоты солнца над горизонтом, облачности и скорости ветра. Ночью, в пасмурную погоду, а также при ветре 12 м/с и более поправка равна нулю.
P - Атмосферное давление - приведенное к уровню моря атмосферное давление.
Po - Атмосферное давление - измеренное на уровне метеостанции атмосферное давление.
Tmin - Минимальная температура - минимум температуры воздуха на высоте 2 м над землей.
Tmax - Максимальная температура - максимум температуры воздуха на высоте 2 м над землей.
R - Количество осадков - Количество выпавших осадков за период времени, мм. При наведении курсора мыши на число - период времени, за который выпало указанное количество осадков.
R24 - Количество осадков - Количество выпавших осадков за 24 часа, мм.
S - Снежный покров - Высота снежного покрова, см. При наведении курсора мыши на число - состояние снежного покрова и степень покрытия местности в баллах.